Location: Acheville
(50.3840°N, 2.8827°E)
Time: 19:33:12
(UTC+00:00)

USA 215 - Pass Details

Date: 24 October 2021
Orbit: 1099 x 1109 km, 123.0° (Epoch: 20 November)

Event Time Altitude Azimuth Distance (km) Brightness Sun altitude
Exits shadow 17:21:14 - 58° (ENE) 3,311 5.2 -7.4°
Reaches altitude 10° 17:22:08 10° 59° (ENE) 2,965 4.9 -7.6°
Maximum altitude 17:28:42 80° 146° (SE) 1,124 3.3 -8.6°
Drops below altitude 10° 17:35:16 10° 234° (SW) 2,961 6.6 -9.6°
Sets 17:37:45 0° 236° (SW) 3,918 7.4 -10.0°
